Terminal Aerodrome Forecast
Issued by NWS Sioux Falls, SD

Home | Current Version | Previous Version | Graphics & Text | Print | Product List | Glossary Off
Versions: 1 2 3 4 5 6 7 8 9 10 11 12 13 14 15 16

000
FTUS43 KFSD 131252 AAA
TAFSUX
TAF AMD
KSUX 131252Z 1313/1412 33025G38KT P6SM BKN025
     FM132300 34017G25KT P6SM BKN035
     FM140200 34011KT P6SM BKN040
     FM140700 32006KT P6SM BKN060=

USA.gov is the U.S. government's official web portal to all federal, state and local government web resources and services.